Location: Nebel
(54.6502°N, 8.3475°E)
Time: 01:02:56
(UTC+01:00)

Envisat - Pass Details

Date: 05 December 2022
Orbit: 763 x 765 km, 98.2° (Epoch: 01 February)

Event Time Altitude Azimuth Distance (km) Brightness Sun altitude
Rises 04:03:18 0° 20° (NNE) 3,248 6.6 -37.2°
Reaches altitude 10° 04:05:49 10° 29° (NNE) 2,317 5.9 -36.9°
Enters shadow 04:08:37 27° 55° (NE) 1,462 4.9 -36.5°
